sat.trackr.live / text

‹ back to catalog

STARLINK-4602

NORAD 53629 · 2022-104AT

PAYLOAD ACTIVE UNKNOWN

§ Identity

Operator
Country
US
Launch date
2022-08-28
Launch site
AFETR
Launch vehicle
Mass (kg)
RCS (m²)

Purposes: comms

External: N2YO · Heavens-Above · Gunter

§ Orbital elements

Epoch: 2026-09-20T22:33:35.963712Z

Period
93.85 min
Inclination
53.1598°
Eccentricity
0.0000851
Mean motion
15.34395474 rev/d
Perigee alt
462.1 km
Apogee alt
463.3 km
Semi-major
6,840.9 km
B*
3.8184e-5
RAAN
65.5459°
Arg perigee
61.6465°
Mean anomaly
298.4623°
Rev number
22,539

§ Raw data

STARLINK-46021 53629U 22104AT  26263.93999958  .00000914  00000+0  38184-4 0  99952 53629  53.1598  65.5459 0000851  61.6465 298.4623 15.34395474225394

JSON: /api/v1/satellites/53629 · /tle

For live sub-satellite position, see the globe view (requires WebGL).

§ Visibility from observer

Set your observer location to see the next 7 days of passes ≥ 10°. The values pass through the URL so the page stays shareable.

No JS? Fill the form by hand. The geolocation button needs JavaScript.